User: anonymous   Login
Location: Key Biscayne
(25.6930°N, 80.1630°W)
Time: 08:12:32
(UTC-05:00)
Language:

CZ-2D R/B - Orbit

View from above orbital plane
View from above orbital plane
View from above satellite
View from above satellite

Ground track
Ground track

The orbit data is extracted from the following two-line orbital elements,

1 28738U 05024B   18052.14992876  .00000296  00000-0  21257-4 0  9999
2 28738  97.4686  88.7523 0011068 222.0428 137.9954 15.11449045693414
Epoch (UTC): 21 February 2018 03:35:53
Eccentricity: 0.0011068
inclination: 97.4686°
perigee height: 524 km
apogee height: 539 km
right ascension of ascending node: 88.7523°
argument of perigee: 222.0428°
revolutions per day: 15.11449045
mean anomaly at epoch: 137.9954°
orbit number at epoch: 69341

The dashed part of the orbit path shows where the satellite is in the earth's shadow,  

DLR